User: anonymous
Location: Unspecified
(0.0000°N, 0.0000°E)
Time: 12:42:16
(UTC+00:00)
Language:

USA 161 - Orbit

View from above orbital plane
View from above orbital plane
View from above satellite
View from above satellite

Ground track
Ground track

The orbit data is extracted from the following two-line orbital elements,

1 26934U 01044A   14203.02560908 0.00009000  00000-0  11490-3 0    03
2 26934  97.0019 334.5906 0003500  47.6374 312.3624 15.59261008    09
Epoch (UTC): 22 July 2014 00:36:52
Eccentricity: 0.0003500
inclination: 97.0019°
perigee height: 387 km
apogee height: 392 km
right ascension of ascending node: 334.5906°
argument of perigee: 47.6374°
revolutions per day: 15.59261008
mean anomaly at epoch: 312.3624°
orbit number at epoch: 0

The dashed part of the orbit path shows where the satellite is in the earth's shadow,  

DLR